Find Starlink 32517

NORAD ID: 61980 Int'l Des: 2024-210 Owner: SPXS Country: US Constellation: starlink operational
LEOCIRCULAR

リアルタイム位置

3D地球を読み込み中...

Starlink 32517について

説明を読み込み中...

次回通過

Passes for default location (London). Set your location on the main map for personalized predictions.

高度履歴

Loading altitude history...

軌道要素

1 61980U 24210X 26105.03185022 .00011406 00000-0 42305-3 0 9997
2 61980 43.0047 334.9566 0001856 242.1366 117.9298 15.27603866 80384
Epoch: Apr 15, 2026 • Age: 12 hours

現在のステータス

高度 493.4 km
速度 7.62 km/s
衛星直下点 -38.02°S, 123.7°W
打ち上げ日 Nov 14, 2024
運用期間 1.4 years
タイプ internet

技術仕様

分類 Payload
質量 730.00 kg
乾燥質量 700.00 kg
総質量 730.00 kg
長さ 0.30 m
直径 4.10 m
スパン 29.00 m
形状 Box + pan
製造者 SPXS
バスタイプ Starlink V2M
フェーズステータス In Orbit
所有者/国 SPXS/US

Most Searched